TimeCDT,TemperatureF,Dew PointF,Humidity,Sea Level PressureIn,VisibilityMPH,Wind Direction,Wind SpeedMPH,Gust SpeedMPH,PrecipitationIn,Events,Conditions,WindDirDegrees,DateUTC
12:15 AM,17.6,7.7,65,30.16,10.0,NNW,15.0,-,N/A,,Overcast,340,2013-03-25 05:15:00
12:35 AM,16.9,8.4,69,30.16,10.0,NNW,12.7,-,N/A,,Overcast,340,2013-03-25 05:35:00
12:55 AM,15.8,9.3,76,30.16,10.0,North,13.8,-,N/A,,Overcast,350,2013-03-25 05:55:00
1:15 AM,15.6,10.2,79,30.16,10.0,NNW,12.7,-,N/A,,Overcast,340,2013-03-25 06:15:00
1:35 AM,14.7,10.4,83,30.17,5.0,NNW,10.4,-,N/A,,Haze,340,2013-03-25 06:35:00
1:55 AM,14.2,10.0,84,30.17,5.0,NNW,12.7,-,N/A,,Mostly Cloudy,340,2013-03-25 06:55:00
2:15 AM,13.3,9.5,85,30.17,10.0,NNW,10.4,-,N/A,,Clear,340,2013-03-25 07:15:00
2:35 AM,12.9,9.3,86,30.17,10.0,NNW,9.2,-,N/A,,Clear,340,2013-03-25 07:35:00
2:55 AM,12.6,8.6,84,30.17,10.0,NNW,9.2,-,N/A,,Scattered Clouds,340,2013-03-25 07:55:00
3:15 AM,12.6,8.6,84,30.18,10.0,NNW,9.2,-,N/A,,Scattered Clouds,340,2013-03-25 08:15:00
3:35 AM,11.3,8.1,87,30.17,10.0,NNW,5.8,-,N/A,,Clear,330,2013-03-25 08:35:00
3:55 AM,9.1,5.9,87,30.17,7.0,WNW,4.6,-,N/A,Snow,Light Snow,300,2013-03-25 08:55:00
4:15 AM,9.5,6.8,89,30.17,10.0,WNW,6.9,-,N/A,,Clear,300,2013-03-25 09:15:00
4:35 AM,9.3,6.3,87,30.17,7.0,NW,5.8,-,N/A,,Scattered Clouds,310,2013-03-25 09:35:00
4:55 AM,8.6,5.5,87,30.17,10.0,WNW,5.8,-,N/A,Snow,Light Snow,300,2013-03-25 09:55:00
5:15 AM,8.2,5.0,87,30.17,10.0,WNW,5.8,-,N/A,,Clear,300,2013-03-25 10:15:00
5:35 AM,8.8,5.9,88,30.17,10.0,NW,5.8,-,N/A,,Clear,310,2013-03-25 10:35:00
6:15 AM,8.6,5.2,86,30.17,10.0,WNW,6.9,-,N/A,,Clear,300,2013-03-25 11:15:00
6:35 AM,8.2,5.0,87,30.17,10.0,NW,6.9,-,N/A,,Clear,310,2013-03-25 11:35:00
6:55 AM,7.9,4.6,87,30.17,10.0,NW,9.2,-,N/A,,Clear,310,2013-03-25 11:55:00
7:15 AM,7.3,3.9,86,30.17,10.0,NW,6.9,-,N/A,,Clear,310,2013-03-25 12:15:00
7:35 AM,6.4,3.0,86,30.18,10.0,WNW,6.9,-,N/A,,Clear,300,2013-03-25 12:35:00
7:55 AM,6.6,3.2,86,30.18,10.0,WNW,11.5,-,N/A,,Clear,290,2013-03-25 12:55:00
8:15 AM,7.7,4.3,86,30.18,10.0,WNW,10.4,-,N/A,,Clear,300,2013-03-25 13:15:00
8:35 AM,9.7,6.4,87,30.18,10.0,WNW,9.2,-,N/A,,Clear,300,2013-03-25 13:35:00
8:55 AM,11.5,8.1,86,30.18,10.0,WNW,10.4,-,N/A,,Clear,300,2013-03-25 13:55:00
9:15 AM,12.9,9.3,86,30.19,10.0,NW,9.2,-,N/A,,Clear,310,2013-03-25 14:15:00
9:35 AM,14.4,10.8,86,30.20,10.0,NW,9.2,-,N/A,,Clear,310,2013-03-25 14:35:00
9:55 AM,16.7,12.4,83,30.20,10.0,NW,8.1,-,N/A,,Clear,310,2013-03-25 14:55:00
10:15 AM,19.0,12.0,74,30.20,10.0,NNW,16.1,20.7,N/A,,Clear,330,2013-03-25 15:15:00
10:35 AM,19.9,11.7,70,30.20,10.0,NNW,13.8,-,N/A,,Clear,340,2013-03-25 15:35:00
10:55 AM,21.2,12.2,68,30.21,10.0,NW,12.7,-,N/A,,Clear,310,2013-03-25 15:55:00
11:15 AM,22.1,12.4,66,30.21,10.0,NW,12.7,-,N/A,,Clear,320,2013-03-25 16:15:00
11:35 AM,23.2,12.4,63,30.21,10.0,NNW,10.4,17.3,N/A,,Clear,330,2013-03-25 16:35:00
11:55 AM,23.5,12.4,62,30.21,10.0,NW,12.7,-,N/A,,Clear,320,2013-03-25 16:55:00
12:15 PM,24.6,12.9,61,30.21,10.0,NNW,9.2,16.1,N/A,,Clear,330,2013-03-25 17:15:00
12:35 PM,25.7,12.4,57,30.21,10.0,NW,13.8,-,N/A,,Clear,310,2013-03-25 17:35:00
12:55 PM,26.4,11.3,53,30.21,10.0,NNW,13.8,19.6,N/A,,Clear,330,2013-03-25 17:55:00
1:15 PM,27.5,10.8,49,30.20,10.0,NNW,17.3,-,N/A,,Clear,340,2013-03-25 18:15:00
1:35 PM,28.2,11.1,49,30.20,10.0,NNW,16.1,21.9,N/A,,Clear,330,2013-03-25 18:35:00
1:55 PM,29.1,13.3,52,30.19,10.0,NW,11.5,17.3,N/A,,Clear,310,2013-03-25 18:55:00
2:15 PM,29.7,12.4,49,30.19,10.0,NW,11.5,19.6,N/A,,Clear,320,2013-03-25 19:15:00
2:35 PM,30.6,14.5,51,30.19,10.0,NW,12.7,18.4,N/A,,Clear,320,2013-03-25 19:35:00
2:55 PM,31.6,13.6,47,30.17,10.0,NNW,10.4,17.3,N/A,,Clear,330,2013-03-25 19:55:00
3:15 PM,32.4,11.3,42,30.17,10.0,NNW,9.2,-,N/A,,Clear,330,2013-03-25 20:15:00
3:35 PM,32.9,9.1,37,30.17,10.0,NW,8.1,-,N/A,,Clear,320,2013-03-25 20:35:00
3:55 PM,34.0,9.1,36,30.16,10.0,NNW,12.7,18.4,N/A,,Clear,330,2013-03-25 20:55:00
4:15 PM,34.3,7.0,32,30.15,10.0,NNW,12.7,16.1,N/A,,Clear,340,2013-03-25 21:15:00
4:35 PM,35.4,5.7,29,30.15,10.0,North,5.8,18.4,N/A,,Clear,350,2013-03-25 21:35:00
4:55 PM,34.9,5.7,30,30.16,10.0,NW,5.8,-,N/A,,Clear,320,2013-03-25 21:55:00
5:15 PM,35.1,5.9,30,30.15,10.0,West,4.6,-,N/A,,Clear,280,2013-03-25 22:15:00
5:35 PM,35.6,3.4,26,30.15,10.0,NNW,9.2,-,N/A,,Clear,340,2013-03-25 22:35:00
5:55 PM,35.8,3.7,26,30.14,10.0,NNW,5.8,-,N/A,,Clear,340,2013-03-25 22:55:00
6:15 PM,35.4,3.7,26,30.14,10.0,North,3.5,-,N/A,,Clear,10,2013-03-25 23:15:00
6:35 PM,35.6,3.0,25,30.14,10.0,NNW,8.1,-,N/A,,Clear,330,2013-03-25 23:35:00
6:55 PM,35.4,3.0,26,30.14,10.0,NNW,4.6,-,N/A,,Clear,340,2013-03-25 23:55:00
7:15 PM,34.9,3.4,27,30.15,10.0,NNE,4.6,-,N/A,,Clear,30,2013-03-26 00:15:00
7:35 PM,33.6,5.0,30,30.15,10.0,Calm,Calm,-,N/A,,Clear,0,2013-03-26 00:35:00
7:55 PM,32.0,6.4,34,30.15,10.0,Calm,Calm,-,N/A,,Clear,0,2013-03-26 00:55:00
8:15 PM,31.6,6.8,35,30.15,10.0,Calm,Calm,-,N/A,,Clear,0,2013-03-26 01:15:00
8:35 PM,30.0,7.0,38,30.15,10.0,Calm,Calm,-,N/A,,Clear,0,2013-03-26 01:35:00
8:55 PM,30.4,4.8,34,30.15,10.0,South,3.5,-,N/A,,Clear,180,2013-03-26 01:55:00
9:15 PM,25.7,18.0,73,30.16,10.0,WSW,8.1,-,N/A,,Clear,240,2013-03-26 02:15:00
9:35 PM,24.4,18.5,78,30.17,10.0,WSW,9.2,-,N/A,,Clear,240,2013-03-26 02:35:00
9:55 PM,23.9,18.3,79,30.17,10.0,WSW,9.2,-,N/A,,Clear,240,2013-03-26 02:55:00
10:15 PM,23.4,17.6,79,30.17,10.0,WSW,10.4,-,N/A,,Clear,240,2013-03-26 03:15:00
10:35 PM,22.8,16.7,77,30.17,10.0,WSW,9.2,-,N/A,,Clear,240,2013-03-26 03:35:00
10:55 PM,22.1,16.2,78,30.17,10.0,WSW,9.2,-,N/A,,Clear,240,2013-03-26 03:55:00
11:15 PM,21.9,14.9,74,30.17,10.0,WSW,10.4,-,N/A,,Clear,240,2013-03-26 04:15:00
11:35 PM,21.4,14.4,74,30.17,10.0,WSW,9.2,-,N/A,,Clear,240,2013-03-26 04:35:00
11:55 PM,20.7,13.6,74,30.17,10.0,WSW,9.2,-,N/A,,Clear,240,2013-03-26 04:55:00